Regional Weather Roundup
Issued by NWS

Home | Current Version | Previous Version | Text Only | Print | Product List | Glossary Off
Versions: 1 2 3 4 5 6 7 8 9 10 11 12 13 14 15 16 17 18 19 20 21 22 23 24 25 26 27 28 29 30 31 32 33 34 35 36 37 38 39 40 41 42 43 44 45 46 47 48 49 50

000
ASUS43 KLSX 210707
RWRMO

WEATHER SUMMARY FOR MISSOURI
NATIONAL WEATHER SERVICE SPRINGFIELD MO
100 AM CST TUE NOV 21 2017

NOTE: "FAIR" INDICATES FEW OR NO CLOUDS BELOW 12,000 FEET WITH NO
       SIGNIFICANT WEATHER AND/OR OBSTRUCTIONS TO VISIBILITY.
       CURRENT SKY AND/OR WEATHER CONDITIONS ARE NOT AVAILABLE FOR
       CHILLICOTHE AND FARMINGTON.

MOZ001>031-035>038-043-044-053-054-210800-
...NORTHERN AND WESTERN MISSOURI...

CITY           SKY/WX    TMP DP  RH WIND       PRES   REMARKS
KANSAS CTY INT PTCLDY    49  31  49 SW10      29.74S
KANSAS C DTWN  PTCLDY    53  30  41 SW13      29.75S
LEE`S SUMMIT   CLEAR     50  31  48 SW15      29.76S
ST JOSEPH      CLOUDY    45  31  58 SW6       29.73S
CHILLICOTHE      N/A     45  31  58 S6        29.75S
KIRKSVILLE     PTCLDY    49  32  52 SW10      29.73S

$$
MOZ066>068-077>081-088>096-101>105-210800-
...SOUTHWEST MISSOURI...

CITY           SKY/WX    TMP DP  RH WIND       PRES   REMARKS
SPRINGFIELD    CLEAR     45  32  60 S12       29.84F
JOPLIN         PTCLDY    50  33  52 S15       29.84F
BRANSON        MOCLDY    48  30  49 CALM      29.89F

$$
MOZ032>034-039>042-045>050-055>058-069>072-210800-
...CENTRAL MISSOURI...

CITY           SKY/WX    TMP DP  RH WIND       PRES   REMARKS
COLUMBIA       PTCLDY    44  30  57 S10       29.80F
JEFFERSON CITY CLEAR     50  30  46 SE5       29.83F
ROLLA          CLOUDY    45  29  53 S10       29.85F
SEDALIA        CLEAR     52  33  48 SW17      29.80S
WHITEMAN AFB   CLEAR     48  31  52 SW13      29.74S
WARRENSBURG    CLEAR     48  32  53 S7        29.78S
OSAGE BEACH    CLEAR     50  31  48 SW10      29.83F

$$
MOZ051-052-059>065-210800-
...EAST CENTRAL MISSOURI...

CITY           SKY/WX    TMP DP  RH WIND       PRES   REMARKS
ST LOUIS INTL  CLOUDY    47  29  49 S9        29.85F
SPIRIT OF STL  PTCLDY    49  29  46 S7        29.84F
ST CHARLES     CLOUDY    45  30  55 S8        29.84F

$$
MOZ072>076-082>087-097>100-106>115-210800-
...SOUTH CENTRAL AND SOUTHEAST MISSOURI...

CITY           SKY/WX    TMP DP  RH WIND       PRES   REMARKS
CAPE GIRARDEAU PTCLDY    40  28  62 S9        29.98S
FARMINGTON     CLOUDY    42  28  57 S7        29.92S
POPLAR BLUFF   CLOUDY    39  29  67 CALM      29.97F
WEST PLAINS    CLOUDY    44  28  53 S7        29.91F

$$



USA.gov is the U.S. government's official web portal to all federal, state and local government web resources and services.